Weather History for Fort Polk, LA

Change the Weather History Date:

Sunday, November 18, 2012

  Actual Average (KPOE) Record (KPOE)
Temperature  
Mean Temperature 54 °F -  
Max Temperature 68 °F 65 °F 77 °F (1999)
Min Temperature 41 °F 46 °F 29 °F (2014)
Degree Days  
Heating Degree Days 10    
Growing Degree Days 4 (Base 50)    
Moisture  
Dew Point 36 °F    
Average Humidity 57    
Maximum Humidity 83    
Minimum Humidity 27    
Precipitation  
Precipitation 0.00 in - - ()
Sea Level Pressure  
Sea Level Pressure 30.30 in    
Wind  
Wind Speed 3 mph (ENE)    
Max Wind Speed 5 mph    
Max Gust Speed -    
Visibility 10 miles    
Events      
Averages and records for this station are not official NWS values.
T = Trace of Precipitation, MM = Missing Value Source: NWS Daily Summary

Daily Weather History Graph

Daily Weather History Graph

Search for Another Location

Airport:

Trip Planner

Search our weather history database for the weather conditions in past years. The results will help you decide how hot, cold, wet, or windy it might be!

Date:

Astronomy

Nov. 18, 2012 Rise Set
Actual Time 6:42 AM CST 5:12 PM CST
Civil Twilight 6:16 AM CST 5:38 PM CST
Nautical Twilight 5:47 AM CST 6:08 PM CST
Astronomical Twilight 5:18 AM CST 6:36 PM CST
Moon 11:13 AM CST (11/18) 10:27 PM CST (11/18)
Length of Visible Light 11h 21m
Length of Day
10h 30m
Waxing Crescent, 30% of the Moon is Illuminated
Nov 18
Waxing Crescent
Nov 20
First Quarter
Nov 28
Full
Dec 6
Last Quarter
Dec 13
New

Hourly Weather History & Observations

Time (CST) Temp. Windchill Dew Point Humidity Pressure Visibility Wind Dir Wind Speed Gust Speed Precip Events Conditions
12:53 AM 48.9 °F - 34.0 °F 56% 30.33 in 10.0 mi ENE 3.5 mph - N/A   Clear
1:53 AM 46.9 °F - 35.1 °F 63% 30.32 in 10.0 mi ENE 3.5 mph - N/A   Clear
2:53 AM 46.0 °F 43.9 °F 35.1 °F 66% 30.31 in 10.0 mi ENE 4.6 mph - N/A   Clear
3:53 AM 44.1 °F 41.5 °F 35.1 °F 71% 30.31 in 10.0 mi ENE 4.6 mph - N/A   Clear
4:53 AM 44.1 °F 42.5 °F 36.0 °F 73% 30.32 in 10.0 mi ENE 3.5 mph - N/A   Clear
5:53 AM 42.1 °F 40.2 °F 35.1 °F 76% 30.32 in 10.0 mi East 3.5 mph - N/A   Clear
6:53 AM 41.0 °F 39.0 °F 36.0 °F 82% 30.32 in 10.0 mi East 3.5 mph - N/A   Clear
7:53 AM 45.0 °F - 39.0 °F 80% 30.34 in 7.0 mi Calm Calm - N/A   Clear
8:53 AM 55.0 °F - 37.0 °F 51% 30.34 in 10.0 mi Variable 4.6 mph - N/A   Clear
9:53 AM 60.1 °F - 37.0 °F 42% 30.34 in 10.0 mi Variable 3.5 mph - N/A   Clear
10:53 AM 63.0 °F - 35.1 °F 35% 30.33 in 10.0 mi Variable 3.5 mph - N/A   Clear
11:53 AM 64.9 °F - 32.0 °F 29% 30.31 in 10.0 mi Calm Calm - N/A   Clear
12:53 PM 68.0 °F - 34.0 °F 28% 30.28 in 10.0 mi Variable 4.6 mph - N/A   Clear
1:53 PM 68.0 °F - 33.1 °F 27% 30.25 in 9.0 mi Variable 4.6 mph - N/A   Clear
2:53 PM 68.0 °F - 33.1 °F 27% 30.26 in 10.0 mi Calm Calm - N/A   Clear
3:53 PM 68.0 °F - 33.1 °F 27% 30.25 in 10.0 mi Variable 4.6 mph - N/A   Clear
4:53 PM 64.9 °F - 35.1 °F 33% 30.26 in 10.0 mi ENE 4.6 mph - N/A   Clear
5:53 PM 55.9 °F - 39.0 °F 53% 30.27 in 7.0 mi East 3.5 mph - N/A   Clear
6:53 PM 51.1 °F - 41.0 °F 68% 30.28 in 8.0 mi Calm Calm - N/A   Clear
7:53 PM 48.0 °F - 39.9 °F 74% 30.28 in 10.0 mi Calm Calm - N/A   Clear
8:53 PM 46.9 °F - 42.1 °F 83% 30.30 in 10.0 mi Calm Calm - N/A   Clear
9:53 PM 45.0 °F - 39.0 °F 80% 30.30 in 9.0 mi Calm Calm - N/A   Clear
10:53 PM 45.0 °F 43.5 °F 39.0 °F 80% 30.29 in 9.0 mi East 3.5 mph - N/A   Clear
11:53 PM 48.0 °F - 37.9 °F 68% 30.28 in 10.0 mi East 4.6 mph - N/A   Clear